Flag for United Kingdom Weather past 2 weeks in Londonderry, Northern Ireland, United Kingdom

Now
59 °F

Scattered clouds.


Feels Like: 56 °F
Forecast: 51 / 65 °F
Wind: 17 mph from Southeast

Location: Eglinton / Londonderry

Current Time: Jul 4, 2015 at 8:45:44 AM

Latest Report: Jul 4, 2015 at 8:20 AM


Visibility: N/A

Pressure: 29.77 "Hg

Humidity: 88%

Dew point: 55 °F

Location of LondonderryLocation

Historic Weather in Londonderry — Graph

°F

Londonderry temperature yesterday

Maximum temperature yesterday: 73 °F (at 1:50 PM)
Minimum temperature yesterday: 57 °F (at 5:50 AM)
Average temperature yesterday: 67 °F

Past Weeks' High & Low Weather Summary

 TemperatureHumidityPressure
High77 °F (Jun 30, 2:50 PM)94% (Jun 19, 8:20 AM)30.21 "Hg (Jun 19, 8:20 AM)
Low46 °F (Jun 23, 6:20 AM)46% (Jun 26, 1:20 PM)29.74 "Hg (Jul 1, 12:50 PM)
Average63 °F75%29.97 "Hg
* Reported Jun 19 7:50 AM — Jul 4 7:20 AM, Londonderry, Weather by CustomWeather, © 2015

Note: Actual official high and low records may vary slightly from our data, if they occured in-between our weather recording intervals... More about our weather records

Advertising

Londonderry weather history for previous 24 hours

 ConditionsComfort  
Time TempWeatherWind HumidityBarometerVisibility
7:20 AM
Sat, Jul 4
59 °FScattered clouds.22 mph88%29.77 "HgN/A
6:50 AM59 °FSprinkles. Broken clouds.22 mph88%29.77 "HgN/A
6:20 AM59 °FScattered clouds.22 mph88%29.77 "HgN/A
10:50 PM
Fri, Jul 3
64 °FSunny.12 mph68%30.01 "Hg10 mi
10:20 PM64 °FSunny.12 mph68%30.04 "Hg10 mi
9:50 PM64 °FSunny.13 mph68%30.07 "Hg10 mi
9:20 PM64 °FPassing clouds.13 mph68%30.07 "HgN/A
8:50 PM64 °FSunny.13 mph68%30.07 "Hg10 mi
8:20 PM68 °FPassing clouds.15 mph60%30.07 "HgN/A
7:50 PM68 °FSunny.14 mph60%30.07 "Hg10 mi
7:20 PM68 °FPassing clouds.13 mph60%30.09 "HgN/A
6:50 PM68 °FPassing clouds.14 mph60%30.09 "HgN/A
6:20 PM68 °FPassing clouds.20 mph60%30.09 "HgN/A
5:50 PM70 °FPassing clouds.18 mph57%30.09 "HgN/A
5:20 PM70 °FPassing clouds.18 mph57%30.12 "HgN/A
4:50 PM72 °FPassing clouds.18 mph57%30.12 "HgN/A
4:20 PM70 °FPassing clouds.17 mph57%30.12 "HgN/A
3:50 PM72 °FPassing clouds.17 mph53%30.12 "HgN/A
3:20 PM73 °FPassing clouds.20 mph50%30.12 "HgN/A
2:50 PM72 °FScattered clouds.17 mph53%30.12 "HgN/A
2:20 PM72 °FScattered clouds.18 mph57%30.12 "HgN/A
1:50 PM73 °FScattered clouds.16 mph47%30.15 "HgN/A
1:20 PM72 °FScattered clouds.15 mph50%30.15 "HgN/A
12:50 PM72 °FScattered clouds.15 mph53%30.15 "HgN/A
12:20 PM72 °FScattered clouds.12 mph53%30.15 "HgN/A
11:50 AM68 °FPassing clouds.13 mph60%30.15 "HgN/A
11:20 AM68 °FPassing clouds.14 mph60%30.18 "HgN/A
10:50 AM70 °FScattered clouds.15 mph57%30.18 "HgN/A
10:20 AM68 °FPassing clouds.10 mph69%30.18 "HgN/A
9:50 AM64 °FPassing clouds.12 mph73%30.18 "HgN/A
9:20 AM64 °FPassing clouds.9 mph68%30.18 "HgN/A
8:50 AM63 °FPassing clouds.12 mph77%30.18 "HgN/A
8:20 AM63 °FPassing clouds.10 mph77%30.18 "HgN/A
Weather by CustomWeather, © 2015

See weather overviewHow to use our weather pages